Location: *
(40.4270°N, 9.4940°E)
Time: 12:49:18
(UTC+01:00)

Daily predictions for brighter satellites

Satellite Brightness Start Highest point End
(mag) Time Altitude Azimuth Time Altitude Azimuth Time Altitude Azimuth
COSMO-SKYMED 1 4.4 19:05:10 10° N 19:09:10 36° WNW 19:13:09 10° SW
Lacrosse 5 1.9 19:05:43 10° SSW 19:10:43 63° SE 19:15:43 10° NE
Meteor 1-22 Rocket 4.4 19:09:49 10° S 19:15:31 63° E 19:21:28 10° NNE
RESURS DK-1 2.6 19:12:15 10° NNW 19:16:18 52° ENE 19:20:20 10° SE
In-Cosmos 22 4.5 19:12:35 10° N 19:17:36 41° ENE 19:22:34 10° SE
Cosmos 1844 Rocket 3.3 19:14:10 10° SW 19:19:44 62° WNW 19:25:20 10° NNE
Cosmos 2344 3.6 19:13:10 10° SSW 19:20:48 78° ESE 19:29:16 10° NE
Cosmos 1821 Rocket 4.1 19:16:34 10° S 19:22:58 90° WSW 19:29:21 10° N
CZ-2C R/B 1.4 19:23:13 10° NNE 19:25:01 33° E 19:26:41 10° SSE
Cosmos 1674 4.4 19:24:16 10° NE 19:26:28 15° ENE 19:27:31 13° E
Okean 3 Rocket 3.9 19:25:52 10° N 19:30:04 43° ENE 19:34:16 10° SSE
Cosmos 1937 Rocket 3.9 19:25:14 10° SSW 19:30:27 68° WNW 19:35:45 10° NNE
Cosmos 1833 Rocket 3.8 19:26:13 10° N 19:30:49 25° NE 19:34:17 15° E
CZ-2D R/B 3.6 19:27:49 10° SE 19:31:29 44° ENE 19:35:12 10° N
SeaSat 1 2.6 19:27:49 10° SSE 19:32:44 77° WSW 19:37:42 10° NNW
Cosmos 2278 Rocket 2.1 19:27:55 10° SSW 19:33:34 74° ESE 19:39:14 10° NNE
FENGYUN 3A 3.8 19:30:04 10° S 19:35:28 81° WSW 19:40:54 10° NNW
Cosmos 1805 3.5 19:32:56 10° SSE 19:36:38 43° E 19:40:21 10° NNE
Cosmos 1818 4.1 19:33:17 10° NNW 19:38:27 42° NE 19:42:17 17° ESE
SAR-Lupe-4 4.1 19:38:12 14° SE 19:40:51 37° ENE 19:44:11 10° N
Cosmos 1605 Rocket 4.0 19:34:47 10° S 19:40:58 69° E 19:47:17 10° NNE
Cosmos 1437 Rocket 4.4 19:39:12 10° SSW 19:42:58 40° WNW 19:46:50 10° N
FengYun 1-2 T 4.5 19:38:26 10° S 19:43:58 75° WSW 19:49:37 10° NNW
Cosmos 2297 4.0 19:42:38 10° S 19:48:00 43° ESE 19:53:24 10° NE
ATLAS 5 CENTAUR R/B 2.7 19:46:35 10° SSE 19:50:20 25° ESE 19:52:17 19° ENE
Cosmos 1470 3.9 19:51:24 24° E 19:51:25 24° E 19:54:38 10° NE
GP-B 3.5 19:49:45 12° SSE 19:53:38 41° E 19:57:49 10° NNE
USA 215 3.5 19:47:58 10° ENE 19:54:12 46° SE 20:00:23 10° SSW
Cosmos 1340 Rocket 4.2 19:51:29 10° NNE 19:54:27 21° ENE 19:54:27 21° ENE
Cosmos 1076 Rocket 3.6 19:50:40 10° N 19:54:49 51° E 19:57:48 18° SSE
Cosmos 2123 Rocket 4.2 19:48:39 10° N 19:55:00 79° W 20:01:15 10° S
Tiangong 1 1.9 19:53:37 10° W 19:56:22 37° SSW 19:57:19 28° SSE
Cosmos 468 4.5 19:51:35 10° NNW 19:56:48 66° ENE 20:00:57 16° SSE
SL-27 R/B 3.7 19:53:53 10° NNW 19:57:18 43° WSW 20:00:45 10° S
Meteor 1-24 Rocket 4.5 19:52:03 10° NNW 19:57:24 54° W 20:02:54 10° S
Resurs 01 Rocket 2.0 19:53:12 10° S 19:57:35 64° W 20:01:59 10° NNW
Cosmos 2098 Rocket 4.4 19:52:20 10° S 19:59:20 68° E 20:06:54 10° NNE
SAR-Lupe-1 4.1 19:58:40 26° SE 20:00:26 57° ENE 20:03:59 10° N
Abrixas 2.7 19:58:49 10° NW 20:01:35 47° NNE 20:01:56 43° NE
Helios 1B rocket 2.4 19:57:47 10° NNE 20:01:54 60° ESE 20:05:57 10° S
Cosmos 1766 Rocket 3.9 19:59:08 10° N 20:03:28 46° E 20:05:25 28° SE
Meteor 1-29 3.1 20:00:34 10° NNE 20:03:57 48° E 20:05:43 24° SSE
Cosmos 2082 Rocket 2.5 19:58:39 10° NNW 20:04:10 50° ENE 20:07:00 27° ESE
Cosmos 1733 4.1 20:07:49 31° ENE 20:07:49 31° ENE 20:10:39 10° NNE
Meteor 1-4 Rocket 2.3 20:03:51 10° S 20:07:19 85° E 20:10:49 10° N
CZ-3B DEB 3.6 19:56:50 10° WSW 20:07:32 52° NW 20:12:29 10° NE
COSMOS 2487 2.9 20:04:15 10° N 20:07:39 40° ENE 20:07:47 39° ENE
USA 186 1.4 20:08:53 57° NW 20:08:53 57° NW 20:10:48 10° NNW
Helios 1A 2.8 20:07:01 18° SSE 20:10:05 83° ENE 20:14:17 10° NNW
Lacrosse 4 Rocket 4.3 20:08:57 10° W 20:11:30 16° NW 20:14:04 10° N
Cosmos 372 Rocket 3.9 20:07:26 10° S 20:12:26 58° ESE 20:17:29 10° NNE
Cosmos 1758 3.4 20:08:31 10° S 20:12:29 78° W 20:16:30 10° N
Cosmos 1153 Rocket 4.5 20:06:15 10° S 20:12:38 83° E 20:19:04 10° N
Cosmos 2061 Rocket 4.3 20:06:42 10° SSE 20:12:40 44° E 20:18:43 10° NNE
H-2A R/B 4.3 20:09:17 10° SSW 20:12:54 37° W 20:16:34 10° NNW
Cosmos 1544 3.6 20:09:24 10° SSW 20:12:59 59° W 20:16:38 10° N
Cosmos 1867 3.5 20:08:04 10° SSW 20:13:27 67° ESE 20:18:54 10° NE
H-2A R/B 4.4 20:10:55 10° SW 20:16:54 46° SSE 20:32:55 24° ESE
H-2A R/B 4.4 20:10:56 10° SW 20:16:54 46° SSE 20:32:55 24° ESE
H-2A R/B 4.4 20:10:56 10° SW 20:16:54 46° SSE 20:32:58 24° ESE
H-2A R/B 4.4 20:10:56 10° SW 20:16:54 46° SSE 20:32:57 24° ESE
H-2A R/B 4.4 20:10:56 10° SW 20:16:54 46° SSE 20:32:59 24° ESE
H-2A R/B 4.4 20:10:55 10° SW 20:16:54 46° SSE 20:32:59 24° ESE
H-2A R/B 4.4 20:10:55 10° SW 20:16:54 46° SSE 20:32:57 24° ESE
H-2A R/B 4.4 20:10:56 10° SW 20:16:54 46° SSE 20:32:53 24° ESE
H-2A R/B 4.4 20:10:56 10° SW 20:16:54 46° SSE 20:32:56 24° ESE
Timation 2 Rocket 4.1 20:11:21 10° NNW 20:17:35 54° ENE 20:20:04 34° ESE
ALOS 4.5 20:14:53 10° SSW 20:18:46 26° W 20:22:41 10° NW
Cosmos-2242 2.9 20:17:17 32° SSE 20:19:00 57° E 20:23:11 10° NNE
Cosmos 1953 2.7 20:17:23 10° SSW 20:21:25 67° W 20:25:29 10° N
Cosmos 158 Rocket 3.9 20:18:27 10° NNW 20:23:33 65° ENE 20:25:16 41° SE
Cosmos 1939 Rocket 2.9 20:23:11 54° ESE 20:23:42 59° ENE 20:27:48 10° N
USA 267 4.4 20:23:27 20° ENE 20:26:45 30° NNE 20:32:17 10° NW
BREEZE-M DEB (TANK) 4.0 20:29:13 10° W 20:32:23 58° NNW 20:42:07 10° ENE
Cosmos 1743 Rocket 4.1 20:30:53 10° N 20:34:28 43° NE 20:34:28 43° NE
Cosmos 1459 Rocket 3.8 20:30:47 10° S 20:37:02 75° E 20:43:14 10° N
BREEZE-M DEB (TANK) 4.4 20:37:16 10° NNW 20:38:22 19° N 20:38:22 19° N
H-2A R/B 4.0 20:41:34 16° NE 20:41:34 16° NE 20:43:41 10° NNE
Cosmos 1271 Rocket 2.7 20:40:33 86° WNW 20:40:33 86° WNW 20:44:35 10° N
Cosmos 2173 Rocket 3.8 20:35:07 10° S 20:41:15 79° E 20:47:32 10° N
Envisat 3.0 20:39:26 33° S 20:41:46 77° WSW 20:46:52 10° NNW
Lacrosse 5 rocket 2.5 20:40:58 10° NNW 20:43:45 31° N 20:43:45 31° N
Cosmos 1125 Rocket 4.5 20:45:48 10° SW 20:50:46 46° WNW 20:55:49 10° N
Lacrosse 5 3.8 20:49:40 10° W 20:54:01 28° NNW 20:58:23 10° NNE
SPOT 5 3.8 20:58:46 40° NE 20:58:46 40° NE 21:02:48 10° N
Cosmos 1674 4.2 20:58:46 10° NNW 21:02:11 33° W 21:02:28 32° WSW
ERS-1 Rocket 2.9 21:03:26 85° NW 21:03:26 85° NW 21:08:23 10° NNW
Cosmos 2016 Rocket 3.9 21:10:47 46° SSW 21:12:47 81° W 21:18:59 10° N
Cosmos 1833 Rocket 3.4 21:09:36 10° NW 21:14:59 48° WSW 21:16:01 43° SW
NOAA 11 4.4 21:16:37 60° NNE 21:16:37 60° NNE 21:21:12 10° N
Meteor 2-17 Rocket 4.4 21:14:06 51° SSW 21:15:45 79° W 21:21:57 10° N
MetOp-B 4.5 21:20:37 59° N 21:20:37 59° N 21:24:57 10° NNW
Cosmos 1725 Rocket 4.0 21:20:50 67° NNE 21:20:50 67° NNE 21:26:12 10° N
Terra 4.3 21:24:59 12° NNE 21:24:59 12° NNE 21:25:30 10° NNE
Cosmos 2251 Rocket 4.1 21:20:58 10° NNW 21:24:58 52° NNW 21:24:58 52° NNW
BREEZE-M DEB (TANK) 4.0 21:30:10 10° WSW 21:34:39 77° NNW 21:53:22 10° ENE
ATLAS 5 CENTAUR R/B 3.0 21:30:16 10° WSW 21:39:59 - NNE 21:34:20 39° WNW
Tsikada Rocket 4.1 21:29:17 10° N 21:34:38 68° NNW 21:34:38 68° NNW
USA 215 3.8 21:30:54 10° NE 21:37:14 54° NW 21:43:33 10° WSW
Cosmos 2082 Rocket 4.0 21:43:33 10° NW 21:47:52 23° W 21:48:53 21° WSW
USA 267 3.8 22:10:47 54° NNW 22:10:47 54° NNW 22:15:42 10° NW
H-2A R/B 4.1 22:22:12 25° NNW 22:22:12 25° NNW 22:24:25 10° NNW
